• en France
  • Liste des pays
  • À 7 jours
  • Température de l'eau
  • Carte satellitaire
  • Carte météo
  • Widgets météo
  • user-avatar
    Se connecter

    Météo par heure à Reykjavík

    Ce jour, 19 Février, Lundi

    Heure Température Précipitation Vent Pression Humidité
    00:00 +1°C° 1,2 mm 13 m/s 742 mmHg 91%
    01:00 +1°C° 1,2 mm 13 m/s 741 mmHg 91%
    02:00 +3°C° 1,2 mm 13 m/s 740 mmHg 91%
    03:00 +3°C° 1,9 mm 12 m/s 740 mmHg 94%
    04:00 +3°C° 1,9 mm 11 m/s 739 mmHg 96%
    05:00 +3°C° 1,9 mm 9 m/s 738 mmHg 98%
    06:00 +2°C° 0,9 mm 10 m/s 739 mmHg 95%
    07:00 +2°C° 0,9 mm 10 m/s 739 mmHg 91%
    08:00 +1°C° 0,9 mm 10 m/s 739 mmHg 88%
    09:00 0°C° 0,2 mm 12 m/s 738 mmHg 86%
    10:00 +1°C° 0,2 mm 13 m/s 738 mmHg 84%
    11:00 +1°C° 0,2 mm 15 m/s 738 mmHg 82%
    12:00 +1°C° 0,4 mm 15 m/s 737 mmHg 83%
    13:00 +1°C° 0,4 mm 14 m/s 737 mmHg 83%
    14:00 +1°C° 0,4 mm 14 m/s 737 mmHg 84%
    15:00 +1°C° 0,4 mm 14 m/s 737 mmHg 85%
    16:00 +1°C° 0,4 mm 13 m/s 737 mmHg 86%
    17:00 +1°C° 0,4 mm 13 m/s 737 mmHg 87%
    18:00 0°C° 0,3 mm 12 m/s 739 mmHg 85%
    19:00 0°C° 0,3 mm 12 m/s 740 mmHg 83%
    20:00 0°C° 0,3 mm 12 m/s 741 mmHg 81%
    21:00 0°C° 0,3 mm 13 m/s 742 mmHg 79%
    22:00 -1°C° 0,3 mm 13 m/s 744 mmHg 77%
    23:00 -1°C° 0,3 mm 14 m/s 745 mmHg 75%

    Demain, 20 Février, Mardi

    Heure Température Précipitation Vent Pression Humidité
    00:00 -2°C° 0,2 mm 14 m/s 746 mmHg 76%
    01:00 -2°C° 0,2 mm 13 m/s 748 mmHg 77%
    02:00 -4°C° 0,2 mm 13 m/s 749 mmHg 77%
    03:00 -4°C° 0,3 mm 13 m/s 750 mmHg 77%
    04:00 -4°C° 0,3 mm 13 m/s 751 mmHg 76%
    05:00 -4°C° 0,3 mm 13 m/s 752 mmHg 76%
    06:00 -4°C° 0,2 mm 13 m/s 753 mmHg 76%
    07:00 -5°C° 0,2 mm 12 m/s 755 mmHg 76%
    08:00 -4°C° 0,2 mm 11 m/s 756 mmHg 75%
    09:00 -4°C° 0,3 mm 11 m/s 757 mmHg 76%
    10:00 -4°C° 0,3 mm 10 m/s 758 mmHg 77%
    11:00 -4°C° 0,3 mm 10 m/s 759 mmHg 78%
    12:00 -3°C° 0,3 mm 10 m/s 759 mmHg 77%
    13:00 -3°C° 0,3 mm 10 m/s 760 mmHg 75%
    14:00 -3°C° 0,3 mm 10 m/s 761 mmHg 73%
    15:00 -3°C° 0,3 mm 10 m/s 761 mmHg 74%
    16:00 -3°C° 0,3 mm 9 m/s 762 mmHg 76%
    17:00 -4°C° 0,3 mm 9 m/s 762 mmHg 77%
    18:00 -4°C° 0,2 mm 8 m/s 763 mmHg 77%
    19:00 -4°C° 0,2 mm 8 m/s 763 mmHg 78%
    20:00 -3°C° 0,2 mm 7 m/s 763 mmHg 78%
    21:00 -3°C° 0,1 mm 6 m/s 763 mmHg 79%
    22:00 -2°C° 0,1 mm 5 m/s 763 mmHg 79%
    23:00 -2°C° 0,1 mm 4 m/s 763 mmHg 80%

    Après-demain, 21 Février, Mercredi

    Heure Température Précipitation Vent Pression Humidité
    00:00 -2°C° 0,2 mm 5 m/s 762 mmHg 81%
    01:00 -2°C° 0,2 mm 5 m/s 762 mmHg 83%
    02:00 -3°C° 0,2 mm 6 m/s 761 mmHg 84%
    03:00 -3°C° 1,3 mm 9 m/s 758 mmHg 86%
    04:00 -3°C° 1,3 mm 11 m/s 756 mmHg 87%
    05:00 -2°C° 1,3 mm 14 m/s 754 mmHg 88%
    06:00 -3°C° 3,3 mm 17 m/s 750 mmHg 88%
    07:00 -2°C° 3,3 mm 20 m/s 746 mmHg 89%
    08:00 -1°C° 3,3 mm 23 m/s 743 mmHg 89%
    09:00 0°C° 2,7 mm 21 m/s 742 mmHg 92%
    10:00 +2°C° 2,7 mm 19 m/s 740 mmHg 94%
    11:00 +3°C° 2,7 mm 17 m/s 739 mmHg 97%
    12:00 +2°C° 0,3 mm 15 m/s 740 mmHg 95%
    13:00 +1°C° 0,3 mm 13 m/s 741 mmHg 92%
    14:00 +1°C° 0,3 mm 11 m/s 743 mmHg 90%
    15:00 +1°C° 0,3 mm 9 m/s 743 mmHg 88%
    16:00 0°C° 0,3 mm 8 m/s 744 mmHg 86%
    17:00 -1°C° 0,3 mm 7 m/s 744 mmHg 84%
    18:00 -1°C° 0,4 mm 6 m/s 744 mmHg 86%
    19:00 -1°C° 0,4 mm 6 m/s 744 mmHg 87%
    20:00 -1°C° 0,4 mm 6 m/s 744 mmHg 88%
    21:00 -1°C° 0,5 mm 6 m/s 744 mmHg 89%
    22:00 -1°C° 0,5 mm 6 m/s 744 mmHg 90%
    23:00 -1°C° 0,5 mm 7 m/s 744 mmHg 90%

    22 Février, Jeudi

    Heure Température Précipitation Vent Pression Humidité
    00:00 -1°C° 0,7 mm 7 m/s 744 mmHg 90%
    01:00 -1°C° 0,7 mm 8 m/s 744 mmHg 89%
    02:00 -1°C° 0,7 mm 9 m/s 744 mmHg 88%
    03:00 -3°C° 0,4 mm 9 m/s 744 mmHg 86%
    04:00 -4°C° 0,4 mm 10 m/s 744 mmHg 84%
    05:00 -4°C° 0,4 mm 10 m/s 745 mmHg 82%
    06:00 -6°C° 0,3 mm 11 m/s 746 mmHg 78%
    07:00 -6°C° 0,3 mm 12 m/s 746 mmHg 75%
    08:00 -7°C° 0,3 mm 13 m/s 747 mmHg 71%
    09:00 -7°C° 0,2 mm 12 m/s 747 mmHg 70%
    10:00 -7°C° 0,2 mm 12 m/s 747 mmHg 69%
    11:00 -7°C° 0,2 mm 11 m/s 748 mmHg 68%
    12:00 -7°C° 0,3 mm 12 m/s 748 mmHg 71%
    13:00 -6°C° 0,3 mm 12 m/s 748 mmHg 73%
    14:00 -6°C° 0,3 mm 12 m/s 748 mmHg 76%
    15:00 -6°C° 0,2 mm 12 m/s 748 mmHg 75%
    16:00 -6°C° 0,2 mm 12 m/s 748 mmHg 74%
    17:00 -6°C° 0,2 mm 12 m/s 748 mmHg 73%
    18:00 -6°C° 0,3 mm 12 m/s 748 mmHg 72%
    19:00 -6°C° 0,3 mm 12 m/s 748 mmHg 72%
    20:00 -6°C° 0,3 mm 13 m/s 748 mmHg 71%
    21:00 -6°C° 0,3 mm 12 m/s 748 mmHg 72%
    22:00 -6°C° 0,3 mm 12 m/s 749 mmHg 73%
    23:00 -6°C° 0,3 mm 12 m/s 749 mmHg 74%

    23 Février, Vendredi

    Heure Température Précipitation Vent Pression Humidité
    00:00 -6°C° 0,2 mm 11 m/s 749 mmHg 73%
    01:00 -6°C° 0,2 mm 11 m/s 750 mmHg 73%
    02:00 -5°C° 0,2 mm 10 m/s 750 mmHg 72%
    03:00 -5°C° 0,2 mm 9 m/s 751 mmHg 73%
    04:00 -5°C° 0,2 mm 9 m/s 752 mmHg 74%
    05:00 -5°C° 0,2 mm 8 m/s 752 mmHg 75%
    06:00 -5°C° 0,2 mm 8 m/s 753 mmHg 77%
    07:00 -4°C° 0,2 mm 7 m/s 754 mmHg 79%
    08:00 -4°C° 0,2 mm 7 m/s 754 mmHg 81%
    09:00 -3°C° 0,2 mm 6 m/s 755 mmHg 81%
    10:00 -3°C° 0,2 mm 6 m/s 755 mmHg 81%
    11:00 -1°C° 0,2 mm 5 m/s 756 mmHg 81%
    12:00 -2°C° 0,3 mm 6 m/s 756 mmHg 82%
    13:00 -2°C° 0,3 mm 6 m/s 756 mmHg 82%
    14:00 -2°C° 0,3 mm 6 m/s 755 mmHg 83%
    15:00 -2°C° 0,2 mm 7 m/s 755 mmHg 82%
    16:00 -2°C° 0,2 mm 8 m/s 754 mmHg 81%
    17:00 -3°C° 0,2 mm 10 m/s 754 mmHg 80%
    18:00 -2°C° 0,6 mm 10 m/s 753 mmHg 83%
    19:00 -2°C° 0,6 mm 11 m/s 752 mmHg 85%
    20:00 -2°C° 0,6 mm 12 m/s 751 mmHg 88%
    21:00 -1°C° 0,8 mm 13 m/s 751 mmHg 91%
    22:00 0°C° 0,8 mm 14 m/s 750 mmHg 93%
    23:00 +1°C° 0,8 mm 15 m/s 749 mmHg 96%

    24 Février, Samedi

    Heure Température Précipitation Vent Pression Humidité
    00:00 +2°C° 0,4 mm 16 m/s 749 mmHg 96%
    01:00 +2°C° 0,4 mm 17 m/s 749 mmHg 96%
    02:00 +2°C° 0,4 mm 18 m/s 749 mmHg 96%
    03:00 +2°C° 1 mm 18 m/s 749 mmHg 96%
    04:00 +2°C° 1 mm 18 m/s 749 mmHg 96%
    05:00 +2°C° 1 mm 19 m/s 749 mmHg 96%
    06:00 +2°C° 1,9 mm 18 m/s 750 mmHg 96%
    07:00 +2°C° 1,9 mm 18 m/s 751 mmHg 96%
    08:00 +2°C° 1,9 mm 18 m/s 751 mmHg 96%
    09:00 +2°C° 1,5 mm 17 m/s 752 mmHg 96%
    10:00 +2°C° 1,5 mm 17 m/s 753 mmHg 96%
    11:00 +2°C° 1,5 mm 16 m/s 754 mmHg 96%
    12:00 +2°C° 1,5 mm 16 m/s 755 mmHg 96%
    13:00 +2°C° 1,5 mm 16 m/s 756 mmHg 96%
    14:00 +2°C° 1,5 mm 16 m/s 757 mmHg 96%
    15:00 +2°C° 1,2 mm 16 m/s 758 mmHg 95%
    16:00 +2°C° 1,2 mm 15 m/s 759 mmHg 95%
    17:00 +2°C° 1,2 mm 15 m/s 760 mmHg 95%
    18:00 +2°C° 0,6 mm 15 m/s 761 mmHg 94%
    19:00 +2°C° 0,6 mm 15 m/s 762 mmHg 94%
    20:00 +2°C° 0,6 mm 15 m/s 763 mmHg 94%
    21:00 +2°C° 0,1 mm 15 m/s 764 mmHg 93%
    22:00 +3°C° 0,1 mm 14 m/s 765 mmHg 93%
    23:00 +3°C° 0,1 mm 14 m/s 766 mmHg 92%
    Voir plus